Punta Gorda, FL

2:53 AM EST on December 14, 2019 (GMT -0500)
Charlotte County

Weather History for KPGD - September, 2019

Change the Weather History Date:

Monday, September 9, 2019

  Actual Average Record
Temperature  
Mean Temperature 84 °F -  
Max Temperature 93 °F 88 °F 93 °F (1997)
Min Temperature 78 °F 72 °F 69 °F (1997)
Cooling Degree Days 20    
Growing Degree Days 34 (Base 50)    
Moisture  
Dew Point 75 °F    
Average Humidity 77    
Maximum Humidity 100    
Minimum Humidity 50    
Precipitation  
Precipitation 0.00 in - - ()
Sea Level Pressure  
Sea Level Pressure 30.09 in    
Wind  
Wind Speed 4 mph (SE)    
Max Wind Speed 15 mph    
Max Gust Speed 25 mph    
Visibility 10 miles    
Events Thunderstorm    
Averages and records for this station are not official NWS values.
T = Trace of Precipitation, MM = Missing Value Source: NWS Daily Summary

Daily Weather History Graph

Daily Weather History Graph

Search for Another Location

Airport or City:

Astronomy

Sep. 09, 2019 Rise Set
Actual Time 7:10 AM EDT 7:39 PM EDT
Civil Twilight 6:47 AM EDT 8:02 PM EDT
Nautical Twilight 6:19 AM EDT 8:30 PM EDT
Astronomical Twilight 5:52 AM EDT 8:57 PM EDT
Moon 5:09 PM EDT (9/9) 3:06 AM EDT (9/9)
Length of Visible Light 13h 15m
Length of Day
12h 28m
Waxing Gibbous, 83% of the Moon is Illuminated
Sep 9
Waxing Gibbous
Sep 14
Full
Sep 21
Last Quarter
Sep 28
New
Oct 5
First Quarter

Hourly Weather History & Observations

Time (EDT) Temp. Heat Index Dew Point Humidity Pressure Visibility Wind Dir Wind Speed Gust Speed Precip Events Conditions
12:53 AM 79.0 °F - 75.9 °F 90% 30.06 in 10.0 mi Calm Calm - N/A   Clear
1:53 AM 79.0 °F - 79.0 °F 100% 30.07 in 10.0 mi ENE 4.6 mph - N/A   Mostly Cloudy
2:53 AM 78.1 °F - 77.0 °F 96% 30.06 in 10.0 mi ESE 4.6 mph - N/A   Mostly Cloudy
3:53 AM 79.0 °F - 78.1 °F 97% 30.06 in 10.0 mi ESE 4.6 mph - N/A   Mostly Cloudy
4:53 AM 79.0 °F - 78.1 °F 97% 30.06 in 10.0 mi SE 4.6 mph - N/A   Overcast
5:53 AM 78.1 °F - 77.0 °F 96% 30.07 in 10.0 mi ESE 4.6 mph - N/A   Mostly Cloudy
6:53 AM 79.0 °F - 78.1 °F 97% 30.09 in 10.0 mi Calm Calm - N/A   Mostly Cloudy
7:53 AM 78.1 °F - 75.9 °F 93% 30.10 in 10.0 mi ESE 3.5 mph - N/A   Clear
8:53 AM 80.1 °F 85.8 °F 77.0 °F 90% 30.12 in 10.0 mi East 3.5 mph - N/A   Partly Cloudy
9:53 AM 84.9 °F 94.1 °F 75.9 °F 74% 30.14 in 10.0 mi SE 8.1 mph - N/A   Mostly Cloudy
10:53 AM 88.0 °F 98.5 °F 75.9 °F 67% 30.14 in 10.0 mi SE 8.1 mph - N/A   Scattered Clouds
11:53 AM 89.1 °F 99.1 °F 75.0 °F 63% 30.13 in 10.0 mi SSE 4.6 mph - N/A   Scattered Clouds
12:53 PM 91.9 °F 100.7 °F 73.0 °F 54% 30.12 in 10.0 mi Variable 4.6 mph - N/A   Scattered Clouds
1:53 PM 91.9 °F 98.4 °F 71.1 °F 50% 30.10 in 10.0 mi Variable 3.5 mph - N/A   Partly Cloudy
2:53 PM 91.9 °F 100.7 °F 73.0 °F 54% 30.08 in 10.0 mi Calm Calm - N/A   Mostly Cloudy
3:53 PM 91.0 °F 101.6 °F 75.0 °F 59% 30.07 in 10.0 mi WNW 6.9 mph - N/A   Mostly Cloudy
4:53 PM 91.9 °F 101.3 °F 73.9 °F 55% 30.05 in 10.0 mi East 15.0 mph 21.9 mph 0.00 in   Scattered Clouds
5:19 PM 89.1 °F 96.0 °F 72.0 °F 57% 30.05 in 10.0 mi SSE 4.6 mph - 0.00 in Thunderstorm Scattered Clouds
5:44 PM 86.0 °F 96.0 °F 75.9 °F 72% 30.06 in 10.0 mi South 12.7 mph 18.4 mph 0.00 in Thunderstorm Thunderstorm
5:53 PM 84.9 °F 92.1 °F 73.9 °F 69% 30.06 in 10.0 mi SW 8.1 mph - 0.00 in Thunderstorm Thunderstorm
6:02 PM 82.9 °F 88.0 °F 72.0 °F 69% 30.07 in 10.0 mi Variable 4.6 mph - N/A   Mostly Cloudy
6:53 PM 84.0 °F 89.0 °F 71.1 °F 65% 30.07 in 10.0 mi SW 4.6 mph - N/A   Partly Cloudy
7:05 PM 84.0 °F 89.0 °F 71.1 °F 65% 30.07 in 10.0 mi Calm Calm - N/A Thunderstorm Partly Cloudy
7:20 PM 84.0 °F 88.4 °F 70.0 °F 63% 30.08 in 10.0 mi SW 5.8 mph - N/A   Scattered Clouds
7:53 PM 82.0 °F 86.3 °F 71.1 °F 69% 30.09 in 10.0 mi South 8.1 mph - N/A Thunderstorm Clear
8:12 PM 81.0 °F 86.7 °F 75.0 °F 82% 30.09 in 10.0 mi SE 12.7 mph 25.3 mph N/A   Mostly Cloudy
8:53 PM 79.0 °F - 75.0 °F 88% 30.11 in 10.0 mi East 3.5 mph - N/A   Partly Cloudy
9:53 PM 78.1 °F - 75.0 °F 90% 30.12 in 10.0 mi SE 3.5 mph - N/A   Clear
10:53 PM 78.1 °F - 77.0 °F 96% 30.13 in 10.0 mi Calm Calm - N/A   Clear
11:53 PM 78.1 °F - 75.9 °F 93% 30.14 in 10.0 mi Calm Calm - N/A   Clear